Regional Weather Roundup
Issued by NWS

Home | Current Version | Previous Version | Text Only | Print | Product List | Glossary Off
Versions: 1 2 3 4 5 6 7 8 9 10 11 12 13 14 15 16 17 18 19 20 21 22 23 24 25 26 27 28 29 30 31 32 33 34 35 36 37 38 39 40 41 42 43 44 45 46 47 48 49 50

000
ASUS43 KDTX 171501
RWRMI
MICHIGAN HOURLY REGIONAL WEATHER ROUNDUP
NATIONAL WEATHER SERVICE DETROIT/PONTIAC MI
1000 AM EST WED DEC 17 2014

NOTE: "FAIR" INDICATES FEW OR NO CLOUDS BELOW 12,000 FEET WITH NO
SIGNIFICANT WEATHER AND/OR OBSTRUCTION TO VISIBILITY.

MIZ047>049-052>055-059>063-066>070-074>076-081>083-171600-
SOUTHEAST LOWER MICHIGAN

CITY           SKY/WX    TMP DP  RH WIND       PRES   REMARKS
ADRIAN         CLOUDY    31  21  66 NW13G29   30.12R WCI  21
ALMA           CLOUDY    29  27  93 W15       30.07R WCI  18
ANN ARBOR      CLOUDY    31  22  69 NW20G28   30.08R WCI  19
BAD AXE        CLOUDY    31  30  96 W18G24    29.96R WCI  19
CARO           CLOUDY    31  27  84 W14G26    30.00R WCI  21
DETROIT CITY   CLOUDY    34  22  61 W14G23    30.06R WCI  25
DETROIT        CLOUDY    32  23  69 W15       30.08R WCI  22
FLINT          CLOUDY    32  25  75 W17       30.05R WCI  21
GROSSE ILE     CLOUDY    32  25  74 W10       30.07R WCI  24
HILLSDALE      CLOUDY    30  25  81 W17       30.10R WCI  18
HOWELL         CLOUDY    30  23  75 W20G25    30.06R WCI  17

CITY           SKY/WX    TMP DP  RH WIND       PRES   REMARKS
LAMBERTVILLE   CLOUDY    32  23  69 W15G23    30.12R WCI  22
LANSING        CLOUDY    29  21  72 W20       30.09R WCI  16
LAPEER         CLOUDY    31  26  81 W13G25    30.01R WCI  21
MASON          CLOUDY    29  22  74 W17G24    30.08R WCI  17
MONROE         CLOUDY    32  25  74 W12       30.08R WCI  23
MT. CLEMENS    CLOUDY    33  26  77 W21       30.01R WCI  20
PONTIAC        CLOUDY    30  22  72 W21G32    30.03R WCI  17
PORT HOPE        N/A     32  29  88 W10G25    29.91R WCI  24
PORT HURON     CLOUDY    32  27  80 W15G25    30.00R WCI  22
TRI CITIES     CLOUDY    32  26  78 W18G25    30.03R WCI  20
TROY           CLOUDY    33  24  68 W13G24    30.06R WCI  24
SAGINAW HB     CLOUDY    32  28  86 W17G26    30.02R WCI  21
$$
MIZ043>046-050>051-056>058-064>065-071>073-077>080-171600-
SOUTHWEST LOWER MICHIGAN

CITY           SKY/WX    TMP DP  RH WIND       PRES   REMARKS
BATTLE CREEK   CLOUDY    31  22  69 W20G25    30.12R WCI  19
BENTON HARBOR  CLOUDY    27  21  78 W14       30.19R WCI  16
BIG RAPIDS     CLOUDY    28  26  96 W13G21    30.05R FOG     WCI  17
COLDWATER      CLOUDY    29  24  79 W18G25    30.13R WCI  17
FREMONT        CLOUDY    28  22  77 NW14      30.11R WCI  17
HOLLAND        CLOUDY    32  23  69 W12G20    30.15R WCI  23
GRAND RAPIDS   LGT SNOW  30  23  75 W13G23    30.11R WCI  20
IONIA          CLOUDY    30  22  73 W15G25    30.09R WCI  19
KALAMAZOO      CLOUDY    30  22  72 NW15      30.14R WCI  19
LUDINGTON      CLOUDY    31  24  75 NW12G22   30.12R WCI  21
MARSHALL       CLOUDY    29  22  75 W17G23    30.11R WCI  17
MOUNT PLEASANT CLOUDY    30  26  88 W12G21    30.04R WCI  20
MUSKEGON       CLOUDY    30  19  63 NW13G24   30.13R WCI  20
SOUTH HAVEN    CLOUDY    30  23  74 W14       30.17S WCI  20
$$
MIZ016>042-171600-
NORTHERN LOWER MICHIGAN

CITY           SKY/WX    TMP DP  RH WIND       PRES   REMARKS
ALPENA         LGT SNOW  31  29  92 NW8G18    29.92R FOG     WCI  23
BEAVER ISLAND  CLOUDY    28  26  89 NW6       29.99R FOG     WCI  22
BELLAIRE       LGT SNOW  31  29  94 W9        30.00R VSB 3/4 WCI  23
CADILLAC       FLURRIES  28  24  86 W9G17     29.99R WCI  19
CHARLEVOIX     CLOUDY    29  28  93 NW15      30.02R FOG     WCI  18
FRANKFORT      FLURRIES  28  25  88 NW18      30.07R WCI  16
GAYLORD        LGT SNOW  27  24  89 NW12G21   29.93R FOG     WCI  17
GRAYLING       LGT SNOW  30  28  92 CALM      29.95R
HARBOR SPRINGS LGT SNOW  29  26  88 W10G16    29.97R WCI  20
HOUGHTON LAKE  CLOUDY    29  24  82 W16G26    29.96R WCI  17
MANISTEE       CLOUDY    28  19  69 NW14G24   30.09R WCI  17
OSCODA         FLURRIES  33  32  96 W7        29.92R WCI  27
PELLSTON       SNOW      28  27  96 NW9       29.96R VSB 1/2 WCI  19
ROGERS CITY    LGT SNOW  31  30  99 NW7       29.93R WCI  24
TRAVERSE CITY  LGT SNOW  30  27  88 W12       30.02R FOG     WCI  20
$$
MIZ007>008-015-171600-
EASTERN UPPER MICHIGAN

CITY           SKY/WX    TMP DP  RH WIND       PRES   REMARKS
KINROSS        CLOUDY    25  25 100 N10       29.94R VSB 1   WCI  15
MACKINAC ISLAN LGT SNOW  28  28 100 NW9G17    29.94R WCI  19
NEWBERRY       LGT SNOW  25  24  96 NW7       29.96R WCI  17
S. S. MARIE    LGT SNOW  23  17  78 N7        29.92F WCI  15
$$
MIZ004>006-011>014-085-171600-
CENTRAL UPPER MICHIGAN

CITY           SKY/WX    TMP DP  RH WIND       PRES   REMARKS
MANISTIQUE     LGT SNOW  27  26  96 NW10      30.01R WCI  17
ESCANABA       CLOUDY    25  19  80 W15G21    30.05R WCI  12
MENOMINEE      CLOUDY    23  16  74 NW9       30.11S WCI  13
SAWYER-GWINN   LGT SNOW  23  19  86 N14G20    30.02R WCI  11
$$
MIZ001>003-009>011-084-171600-
WESTERN UPPER MICHIGAN

CITY           SKY/WX    TMP DP  RH WIND       PRES   REMARKS
IRON MOUNTAIN  CLOUDY    22  16  78 NW14G21   30.07R WCI   9
HOUGHTON       LGT SNOW  23  19  85 N14       30.10R VSB 3/4 WCI  11
COPPER HARBOR    N/A     27  22  81 NE23      30.11R WCI  12
IRONWOOD       CLOUDY    18  14  86 W12       30.14R WCI   5
$$

ABBREVIATIONS USED IN REMARKS
   TC - TEMPERATURE IN CELSIUS
  WCI - WIND CHILL INDEX
   HX - HEAT INDEX
  VSB - VISIBILITY



USA.gov is the U.S. government's official web portal to all federal, state and local government web resources and services.